TEVEL2-5

Last updated on Mon Nov 03 2025 00:03:22 GMT+0000 (Coordinated Universal Time)

1 63214U 25052E 25306.46003655 .00018325 00000+0 73572-3 0 9990 2 63214 97.4121 198.6170 0003030 146.3494 213.7937 15.25014130 35441
UTC large
Height (km)
Speed (km/s)
/
Latitude / Longitude
Inclination (degrees)
Orbital Period (minutes)
Azimuth
Elevation
Range (km)
Doppler Factor

Next 0 passes for location: London (51.5072 / 0.1276)

Sorry there are no passes over London.